Retour au catalogue

STARLINK-2503

ActifCommunicationsVLEO
NORAD 48151·PAYLOAD·🇺🇸 United States

Lancé Apr 7, 2021 depuis Cape Canaveral Space Force Station

Loading…

Prochains Passages (prochaines 24 heures)

TLE

FraisSource: CelesTrak SupGP

Époque: Sep 15, 2026, 02:11 UTC

1 48151C 21027BM  26258.09145833  .00043104  00000+0  13860-2 0  2586
2 48151  53.1601 351.2341 0001169  91.4301  82.4271 15.31683220    17

Suivez STARLINK-2503 en temps réel avec AllMySat

Download on the App Store